Home   Weather   Cocoa Beach   Past weeks

Flag for USA Past Weather in Cocoa Beach, Florida, USA — Yesterday and Last 2 Weeks

Now
64 °F

Sunny.


Feels Like: 64 °F
Forecast: 58 / 71 °F
Wind: 22 mph from West

Location: Cocoa / Patrick Air Force Base

Current Time: Jan 23, 2017 at 10:16:56 am

Latest Report: Jan 23, 2017 at 8:58 am


Visibility: 10 mi

Pressure: 29.54 "Hg

Humidity: 84%

Dew Point: 59 °F

Location of Cocoa BeachLocation

Past Weather in Cocoa Beach — Graph

°F

Cocoa Beach Temperature Yesterday

Maximum temperature yesterday: 86 °F (at 2:58 pm)
Minimum temperature yesterday: 66 °F (at 11:23 pm)
Average temperature yesterday: 75 °F

High & Low Weather Summary for the Past Weeks

 TemperatureHumidityPressure
High86 °F (Jan 22, 2:58 pm)100% (Jan 11, 1:34 am)30.59 "Hg (Jan 11, 1:34 am)
Low44 °F (Jan 8, 8:58 am)42% (Jan 20, 2:58 pm)29.49 "Hg (Jan 22, 10:12 pm)
Average68 °F82%30.21 "Hg
* Reported Jan 8 8:58 am — Jan 23 8:58 am, Cocoa Beach, Weather by CustomWeather, © 2017

Note: Actual official high and low records may vary slightly from our data, if they occured in-between our weather recording intervals... More about our weather records

Advertising

Cocoa Beach Weather History for the Previous 24 Hours

Scroll right to see more
 ConditionsComfort  
Time TempWeatherWind HumidityBarometerVisibility
8:58 am
Mon, Jan 23
64 °FSunny.22 mph84%29.54 "Hg10 mi
7:58 am62 °FSunny.14 mph86%29.50 "Hg10 mi
7:37 am63 °FLight rain. Fog.22 mph88%29.52 "Hg6 mi
6:58 am64 °FClear.13 mph85%29.50 "Hg10 mi
5:58 am64 °FClear.13 mph85%29.49 "Hg10 mi
4:58 am66 °FClear.17 mph81%29.49 "Hg10 mi
3:58 am67 °FClear.14 mph89%29.49 "Hg10 mi
2:58 am66 °FClear.12 mph98%29.49 "Hg10 mi
1:58 am66 °FClear.9 mph98%29.49 "Hg10 mi
12:58 am66 °FClear.7 mph98%29.52 "Hg10 mi
12:07 am66 °FClear.7 mph94%29.50 "Hg10 mi
11:43 pm
Sun, Jan 22
66 °FLight rain. Fog.7 mph94%29.53 "Hg6 mi
11:23 pm66 °FHeavy rain. Fog.12 mph94%29.55 "Hg2 mi
10:44 pm70 °FLight rain. Passing clouds.29 mph88%29.51 "Hg9 mi
10:34 pm72 °FLight rain. Partly cloudy.15 mph83%29.50 "Hg1 mi
10:12 pm77 °FLight rain. Passing clouds.22 mph79%29.49 "Hg9 mi
9:58 pm78 °FPassing clouds.25 mph75%29.50 "Hg10 mi
8:58 pm78 °FPassing clouds.29 mph73%29.49 "Hg10 mi
7:58 pm79 °FPassing clouds.29 mph70%29.51 "Hg10 mi
6:58 pm79 °FClear.25 mph68%29.55 "Hg10 mi
5:58 pm80 °FClear.29 mph63%29.57 "Hg10 mi
4:58 pm83 °FSunny.28 mph57%29.57 "Hg10 mi
3:58 pm85 °FSunny.31 mph53%29.58 "Hg10 mi
2:58 pm86 °FSunny.28 mph53%29.58 "Hg10 mi
1:58 pm84 °FSunny.30 mph56%29.60 "Hg10 mi
12:58 pm83 °FSunny.25 mph62%29.64 "Hg10 mi
11:58 am82 °FSunny.24 mph65%29.70 "Hg10 mi
10:58 am80 °FPassing clouds.25 mph72%29.73 "Hg10 mi
Weather by CustomWeather, © 2017

See weather overviewHow to use our weather pages